TimeCDT,TemperatureF,Dew PointF,Humidity,Sea Level PressureIn,VisibilityMPH,Wind Direction,Wind SpeedMPH,Gust SpeedMPH,PrecipitationIn,Events,Conditions,WindDirDegrees,DateUTC
12:52 AM,75.9,48.0,37,29.79,10.0,SSE,16.1,23.0,N/A,,Clear,160,2014-04-12 05:52:00
1:52 AM,73.9,48.0,40,29.81,10.0,SSE,9.2,-,N/A,,Clear,160,2014-04-12 06:52:00
2:52 AM,72.0,48.0,43,29.79,10.0,SSE,10.4,-,N/A,,Clear,160,2014-04-12 07:52:00
3:52 AM,71.1,50.0,47,29.77,10.0,South,16.1,-,N/A,,Clear,170,2014-04-12 08:52:00
4:52 AM,71.1,52.0,51,29.76,10.0,South,17.3,-,N/A,,Clear,170,2014-04-12 09:52:00
5:52 AM,69.1,55.0,61,29.76,10.0,South,15.0,-,N/A,,Clear,170,2014-04-12 10:52:00
6:52 AM,68.0,55.9,65,29.78,10.0,South,11.5,-,N/A,,Clear,170,2014-04-12 11:52:00
7:52 AM,66.9,55.9,68,29.80,10.0,South,15.0,25.3,N/A,,Clear,180,2014-04-12 12:52:00
8:52 AM,68.0,57.0,68,29.80,10.0,South,17.3,28.8,N/A,,Clear,170,2014-04-12 13:52:00
9:52 AM,70.0,57.0,63,29.81,10.0,South,13.8,27.6,N/A,,Clear,170,2014-04-12 14:52:00
10:52 AM,73.0,57.0,57,29.81,10.0,South,20.7,25.3,N/A,,Clear,180,2014-04-12 15:52:00
11:52 AM,78.1,57.0,48,29.78,10.0,South,24.2,33.4,N/A,,Clear,190,2014-04-12 16:52:00
12:52 PM,82.0,55.9,41,29.76,9.0,SSW,16.1,26.5,N/A,,Clear,200,2014-04-12 17:52:00
1:52 PM,86.0,55.0,35,29.72,10.0,South,18.4,28.8,N/A,,Clear,190,2014-04-12 18:52:00
2:52 PM,90.0,52.0,27,29.69,10.0,SSW,19.6,26.5,N/A,,Clear,200,2014-04-12 19:52:00
3:52 PM,89.1,50.0,26,29.66,10.0,South,19.6,25.3,N/A,,Clear,180,2014-04-12 20:52:00
4:52 PM,89.1,46.9,23,29.63,10.0,South,17.3,23.0,N/A,,Clear,190,2014-04-12 21:52:00
5:52 PM,90.0,42.1,19,29.61,10.0,South,18.4,-,N/A,,Clear,190,2014-04-12 22:52:00
6:52 PM,90.0,50.0,25,29.60,10.0,South,21.9,31.1,N/A,,Clear,180,2014-04-12 23:52:00
7:52 PM,84.0,52.0,33,29.62,10.0,South,20.7,32.2,N/A,,Clear,180,2014-04-13 00:52:00
8:52 PM,82.0,53.1,37,29.63,10.0,South,17.3,24.2,N/A,,Clear,180,2014-04-13 01:52:00
9:52 PM,80.1,54.0,40,29.65,10.0,South,15.0,-,N/A,,Clear,170,2014-04-13 02:52:00
10:52 PM,79.0,55.0,44,29.66,10.0,South,15.0,-,N/A,,Clear,170,2014-04-13 03:52:00
11:52 PM,79.0,55.9,45,29.65,10.0,SSW,21.9,32.2,N/A,,Clear,200,2014-04-13 04:52:00